Home   Weather   Whitstable   Past weeks

Flag for United Kingdom Past Weather in Whitstable, England, United Kingdom — Yesterday and Last 2 Weeks

Now
64 °F

Mild.


Feels Like: 64 °F
Forecast: 58 / 67 °F
Wind: 13 mph from Southeast

Location: Manston

Current Time: Sep 24, 2016 at 11:35:49 PM

Latest Report: Sep 24, 2016 at 10:00 PM


Visibility: 19 mi

Pressure: 29.97 "Hg

Humidity: 78%

Dew Point: 57 °F

Location of WhitstableLocation

Past Weather in Whitstable — Graph

°F

Whitstable Temperature Yesterday

Maximum temperature yesterday: 67 °F (at 4:00 PM)
Minimum temperature yesterday: 51 °F (at 7:00 AM)
Average temperature yesterday: 58 °F

High & Low Weather Summary for the Past Weeks

 TemperatureHumidityPressure
High87 °F (Sep 13, 4:00 PM)100% (Sep 21, 8:00 AM)30.30 "Hg (Sep 21, 8:00 AM)
Low51 °F (Sep 23, 7:00 AM)42% (Sep 14, 5:00 PM)29.78 "Hg (Sep 14, 5:00 AM)
Average64 °F80%30.02 "Hg
* Reported Sep 9 10:00 PM — Sep 24 10:00 PM, Whitstable, Weather by CustomWeather, © 2016

Note: Actual official high and low records may vary slightly from our data, if they occured in-between our weather recording intervals... More about our weather records

Advertising

Whitstable Weather History for the Previous 24 Hours

Scroll right to see more
 ConditionsComfort  
Time TempWeatherWind HumidityBarometerVisibility
10:00 PM
Sat, Sep 24
64 °FMild.13 mph78%29.97 "Hg19 mi
9:00 PM64 °FMild.10 mph73%29.98 "Hg25 mi
8:00 PM65 °FMild.10 mph67%29.99 "Hg28 mi
7:00 PM67 °FMild.10 mph61%30.00 "Hg28 mi
6:00 PM67 °FMild.12 mph61%30.01 "Hg22 mi
5:00 PM69 °FMild.17 mph54%30.02 "Hg25 mi
4:00 PM71 °FMild.18 mph54%30.04 "Hg28 mi
3:00 PM71 °FMild.18 mph54%30.05 "Hg22 mi
2:00 PM71 °FMild.22 mph57%30.07 "Hg22 mi
1:00 PM71 °FMild.20 mph59%30.09 "Hg25 mi
12:00 PM70 °FMild.15 mph64%30.11 "Hg12 mi
11:00 AM67 °FMild.15 mph66%30.13 "Hg28 mi
10:00 AM65 °FMild.14 mph65%30.15 "Hg28 mi
9:00 AM63 °FMild.7 mph81%30.16 "Hg14 mi
8:00 AM60 °FCool.7 mph89%30.16 "Hg17 mi
7:00 AM56 °FCool.7 mph95%30.16 "Hg17 mi
6:00 AM55 °FCool.7 mph91%30.16 "Hg25 mi
5:00 AM54 °FCool.7 mph88%30.17 "Hg28 mi
4:00 AM55 °FCool.8 mph86%30.18 "Hg31 mi
3:00 AM54 °FCool.7 mph88%30.20 "Hg28 mi
2:00 AM54 °FCool.6 mph92%30.22 "Hg25 mi
1:00 AM54 °FCool.5 mph90%30.22 "Hg19 mi
12:00 AM55 °FCool.5 mph88%30.24 "Hg19 mi
11:00 PM
Fri, Sep 23
56 °FCool.5 mph87%30.25 "Hg19 mi
Weather by CustomWeather, © 2016

See weather overviewHow to use our weather pages